Find JCSAT RA

NORAD ID: 35755 Int'l Des: 2009-044 Owner: SKPJ Country: J operational
HEOCIRCULARGSOGEO

实时位置

正在加载3D地球...

关于 JCSAT RA

正在加载描述...

即将过境

Passes for default location (London). Set your location on the main map for personalized predictions.

高度历史

Loading altitude history...

两行轨道根数

1 35755U 09044A 26107.24072517 -.00000325 00000-0 00000-0 0 9997
2 35755 0.0221 270.1563 0002659 34.4614 119.4299 1.00233988 60993
Epoch: Apr 17, 2026 • Age: 10 hours

当前状态

高度 35796.8 km
速度 3.07 km/s
星下点 -0.03°S, 131.91°E
发射日期 Aug 21, 2009
运行时间 16.6 years
类型 other

技术详情

分类 Payload
质量 4050.00 kg
干质量 1850.00 kg
总质量 4050.00 kg
长度 5.50 m
直径 2.20 m
跨度 26.90 m
形状 Box + 2 Pan
制造商 LMCSS
平台类型 A2100AXS
阶段状态 Renamed
所有者/国家 SKPJ/J

Most Searched